Simultaneous Nadir Overpasses (SNOs) Predictions

Prediction of SNOs between NOAA-20 and LANDSAT-8 Satellite Orbit:

Table of predicted SNOs for the next 14.0 days since TLE Epoch: 1/8/2022
Index Date (NOAA-20) Time (NOAA-20) Lat,Lon (NOAA-20) SZA (NOAA-20 ) Date (LANDSAT-8) Time (LANDSAT-8) Lat,Lon (LANDSAT-8) SZA (LANDSAT-8 ) Distance(km) Time Diff (sec)
1 01/08/2022 07:22:09 70.15, 65.57 92.36 01/08/2022 07:23:21 70.11, 65.67 92.31 5.25 72
2 01/08/2022 08:12:50 -70.02,-126.91 87.79 01/08/2022 08:12:51 -70.00,-126.86 87.81 2.83 1
3 01/08/2022 09:03:32 69.79, 40.75 91.97 01/08/2022 09:02:19 69.84, 40.57 92.04 9.22 73
4 01/10/2022 23:38:59 70.04,-178.47 91.86 01/10/2022 23:39:51 70.05,-178.55 91.86 3.14 52
5 01/11/2022 00:29:41 -69.96, -11.03 88.23 01/11/2022 00:29:21 -69.93, -11.07 88.26 3.20 20
6 01/11/2022 01:20:09 68.98, 157.68 90.75 01/11/2022 01:19:02 69.05, 155.40 90.91 91.49 67
7 01/13/2022 15:55:50 70.04, -62.68 91.43 01/13/2022 15:56:19 70.03, -62.69 91.41 1.23 29
8 01/13/2022 16:46:31 -69.90, 104.85 88.73 01/13/2022 16:45:49 -69.92, 104.78 88.70 3.12 42
9 01/16/2022 07:22:05 -70.52,-114.95 88.54 01/16/2022 07:23:16 -70.38,-113.95 88.72 40.24 71
10 01/16/2022 08:12:41 69.98, 53.19 90.89 01/16/2022 08:12:48 70.00, 53.15 90.91 2.43 7
11 01/16/2022 09:03:23 -69.90,-139.36 89.21 01/16/2022 09:02:18 -69.89,-139.37 89.20 0.45 65
12 01/18/2022 23:38:49 -70.10, 1.49 89.51 01/18/2022 23:39:50 -70.08, 1.50 89.54 1.94 61
13 01/19/2022 00:29:33 69.99, 168.97 90.37 01/19/2022 00:29:17 69.97, 168.99 90.35 2.10 16
14 01/19/2022 01:20:05 -69.37, -22.80 90.29 01/19/2022 01:18:55 -69.43, -24.13 90.18 52.28 70
15 01/21/2022 15:55:40 -70.05, 117.36 90.14 01/21/2022 15:56:19 -70.05, 117.33 90.15 1.06 39
16 01/21/2022 16:46:24 69.94, -75.17 89.75 01/21/2022 16:45:46 69.94, -75.18 89.74 1.07 38



Historial Predications of SNOs between NOAA-20 and LANDSAT-8
